Location: Newark
(44.2003°N, 3.2583°E)
Time: 08:04:22
(UTC+00:00)

Vanguard 1 Rocket - Visible Passes

Search period start: 16 October 2019 00:00
Search period end: 26 October 2019 00:00
Orbit: 650 x 4226 km, 34.3° (Epoch: 13 October)

Date Brightness Start Highest point End Pass type
(mag) Time Alt. Az. Time Alt. Az. Time Alt. Az.
16 Oct 11.4 18:04:24 10° W 18:24:09 30° SW 18:39:43 10° S visible
17 Oct 11.4 16:48:30 10° W 17:11:08 41° SW 17:30:03 10° SSE visible
17 Oct 11.7 19:28:13 10° W 19:37:28 14° WSW 19:45:37 10° SW visible
18 Oct 11.6 18:07:43 10° W 18:25:30 25° SW 18:40:20 10° S visible
19 Oct 11.6 16:51:16 10° W 17:12:38 36° SW 17:31:20 10° SSE visible
20 Oct 11.8 18:11:42 10° W 18:26:47 20° SW 18:40:07 10° SSW visible
21 Oct 11.7 16:54:20 10° W 17:14:05 31° SW 17:32:11 10° S visible
22 Oct 12.0 18:17:03 10° W 18:28:06 15° SW 18:38:24 10° SSW visible
23 Oct 11.9 16:57:49 10° W 17:15:31 25° SW 17:32:24 10° S visible
25 Oct 12.1 17:02:02 10° W 17:16:58 20° SW 17:31:43 10° SSW visible
